TimeCDT,TemperatureF,Dew PointF,Humidity,Sea Level PressureIn,VisibilityMPH,Wind Direction,Wind SpeedMPH,Gust SpeedMPH,PrecipitationIn,Events,Conditions,WindDirDegrees,DateUTC
12:13 AM,66.2,62.6,88,29.89,10.0,East,3.5,-,N/A,,Overcast,90,2013-09-09 05:13:00
12:33 AM,66.2,64.4,94,29.88,10.0,Calm,Calm,-,N/A,,Overcast,0,2013-09-09 05:33:00
12:52 AM,69.8,64.4,83,29.88,10.0,ESE,4.6,-,N/A,,Overcast,120,2013-09-09 05:52:00
1:13 AM,69.8,64.4,83,29.88,10.0,ESE,3.5,-,N/A,,Overcast,120,2013-09-09 06:13:00
1:33 AM,69.8,66.2,88,29.87,10.0,ESE,4.6,-,N/A,,Overcast,120,2013-09-09 06:33:00
1:52 AM,69.8,68.0,94,29.86,10.0,SE,5.8,-,N/A,,Overcast,130,2013-09-09 06:52:00
2:13 AM,69.8,68.0,94,29.85,10.0,SE,6.9,-,N/A,,Overcast,130,2013-09-09 07:13:00
2:32 AM,69.8,68.0,94,29.84,7.0,SE,10.4,-,N/A,,Overcast,140,2013-09-09 07:32:00
2:53 AM,69.8,68.0,94,29.83,7.0,ESE,9.2,-,N/A,,Overcast,120,2013-09-09 07:53:00
3:13 AM,69.8,68.0,94,29.82,7.0,SE,8.1,-,N/A,,Overcast,140,2013-09-09 08:13:00
3:33 AM,69.8,68.0,94,29.82,7.0,SE,8.1,-,N/A,,Overcast,130,2013-09-09 08:33:00
3:53 AM,69.8,68.0,94,29.82,7.0,SE,8.1,-,N/A,,Overcast,130,2013-09-09 08:53:00
4:13 AM,69.8,68.0,94,29.80,7.0,SE,9.2,-,N/A,,Mostly Cloudy,130,2013-09-09 09:13:00
4:33 AM,69.8,68.0,94,29.81,7.0,SE,5.8,-,N/A,,Mostly Cloudy,130,2013-09-09 09:33:00
4:53 AM,69.8,68.0,94,29.82,7.0,SSE,5.8,-,N/A,Thunderstorm,Overcast,150,2013-09-09 09:53:00
5:13 AM,69.8,68.0,94,29.82,7.0,SE,8.1,-,N/A,Rain-Thunderstorm,Light Thunderstorms and Rain,140,2013-09-09 10:13:00
5:32 AM,69.8,68.0,94,29.83,7.0,SE,3.5,-,N/A,Rain,Light Rain,130,2013-09-09 10:32:00
5:53 AM,68.0,68.0,100,29.80,5.0,SE,8.1,-,N/A,Rain,Light Rain,130,2013-09-09 10:53:00
6:13 AM,68.0,68.0,100,29.78,4.0,ESE,11.5,-,N/A,Rain-Thunderstorm,Light Thunderstorms and Rain,120,2013-09-09 11:13:00
6:32 AM,68.0,68.0,100,29.74,4.0,ESE,10.4,-,N/A,Rain-Thunderstorm,Thunderstorms and Rain,110,2013-09-09 11:32:00
6:53 AM,69.8,69.8,100,29.77,5.0,SSE,9.2,-,N/A,Thunderstorm,Scattered Clouds,150,2013-09-09 11:53:00
7:13 AM,69.8,69.8,100,29.77,4.0,SSE,8.1,-,N/A,,Mostly Cloudy,150,2013-09-09 12:13:00
7:32 AM,69.8,69.8,100,29.76,3.0,SSE,6.9,-,N/A,,Overcast,150,2013-09-09 12:32:00
7:53 AM,69.8,69.8,100,29.75,3.0,SE,6.9,-,N/A,,Overcast,140,2013-09-09 12:53:00
8:13 AM,69.8,69.8,100,29.74,2.5,SE,5.8,-,N/A,,Overcast,130,2013-09-09 13:13:00
8:32 AM,69.8,69.8,100,29.74,2.5,SSE,6.9,-,N/A,,Overcast,150,2013-09-09 13:32:00
8:53 AM,69.8,69.8,100,29.75,2.0,SSE,5.8,-,N/A,,Overcast,160,2013-09-09 13:53:00
9:13 AM,69.8,69.8,100,29.74,1.5,SSE,5.8,-,N/A,,Overcast,150,2013-09-09 14:13:00
9:32 AM,69.8,69.8,100,29.74,1.5,SE,6.9,-,N/A,,Overcast,140,2013-09-09 14:32:00
9:53 AM,71.6,71.6,100,29.74,1.8,SE,3.5,-,N/A,,Overcast,140,2013-09-09 14:53:00
10:13 AM,71.6,71.6,100,29.73,2.0,SE,6.9,-,N/A,,Overcast,140,2013-09-09 15:13:00
10:32 AM,71.6,71.6,100,29.74,2.0,SSE,3.5,-,N/A,,Overcast,150,2013-09-09 15:32:00
10:53 AM,71.6,71.6,100,29.73,3.0,SSE,4.6,-,N/A,,Overcast,150,2013-09-09 15:53:00
11:13 AM,73.4,71.6,94,29.73,4.0,SSE,4.6,-,N/A,,Overcast,150,2013-09-09 16:13:00
11:32 AM,75.2,73.4,94,29.72,5.0,SSE,4.6,-,N/A,,Overcast,160,2013-09-09 16:32:00
11:53 AM,77.0,73.4,89,29.71,5.0,SSE,5.8,-,N/A,,Mostly Cloudy,160,2013-09-09 16:53:00
12:13 PM,78.8,73.4,83,29.70,7.0,SSE,5.8,-,N/A,,Mostly Cloudy,150,2013-09-09 17:13:00
12:32 PM,80.6,73.4,79,29.68,10.0,SSE,8.1,-,N/A,,Scattered Clouds,160,2013-09-09 17:32:00
12:53 PM,80.6,73.4,79,29.67,10.0,SSE,8.1,-,N/A,,Clear,150,2013-09-09 17:53:00
1:13 PM,82.4,73.4,74,29.67,10.0,South,5.8,-,N/A,,Clear,170,2013-09-09 18:13:00
1:32 PM,84.2,73.4,70,29.67,10.0,South,6.9,-,N/A,,Clear,190,2013-09-09 18:32:00
1:53 PM,84.2,73.4,70,29.67,10.0,South,4.6,-,N/A,,Clear,170,2013-09-09 18:53:00
2:13 PM,86.0,73.4,66,29.66,10.0,SSW,5.8,-,N/A,,Clear,200,2013-09-09 19:13:00
2:32 PM,87.8,73.4,62,29.66,10.0,South,3.5,-,N/A,,Clear,190,2013-09-09 19:32:00
2:53 PM,89.6,73.4,59,29.65,10.0,SSW,6.9,-,N/A,,Clear,210,2013-09-09 19:53:00
3:12 PM,89.6,73.4,59,29.64,10.0,SSW,6.9,-,N/A,,Clear,210,2013-09-09 20:12:00
3:33 PM,89.6,71.6,55,29.64,10.0,SW,4.6,-,N/A,,Clear,230,2013-09-09 20:33:00
3:52 PM,91.4,69.8,49,29.64,10.0,SW,6.9,-,N/A,,Clear,220,2013-09-09 20:52:00
4:13 PM,91.4,69.8,49,29.64,10.0,SW,6.9,-,N/A,,Clear,230,2013-09-09 21:13:00
4:33 PM,91.4,69.8,49,29.64,10.0,West,6.9,-,N/A,,Clear,270,2013-09-09 21:33:00
4:53 PM,91.4,69.8,49,29.65,10.0,WSW,8.1,-,N/A,,Clear,250,2013-09-09 21:53:00
5:13 PM,91.4,68.0,46,29.65,10.0,West,6.9,-,N/A,,Clear,260,2013-09-09 22:13:00
5:33 PM,91.4,68.0,46,29.66,10.0,West,5.8,-,N/A,,Clear,260,2013-09-09 22:33:00
5:53 PM,89.6,69.8,52,29.66,10.0,West,5.8,-,N/A,,Clear,260,2013-09-09 22:53:00
6:12 PM,89.6,69.8,52,29.67,10.0,West,5.8,-,N/A,,Clear,270,2013-09-09 23:12:00
6:33 PM,87.8,71.6,58,29.67,10.0,West,3.5,-,N/A,,Clear,260,2013-09-09 23:33:00
6:53 PM,87.8,71.6,58,29.68,10.0,WNW,9.2,-,N/A,,Clear,300,2013-09-09 23:53:00
7:12 PM,84.2,73.4,70,29.69,10.0,WNW,9.2,16.1,N/A,,Scattered Clouds,300,2013-09-10 00:12:00
7:33 PM,84.2,73.4,70,29.70,10.0,WNW,8.1,-,N/A,,Scattered Clouds,300,2013-09-10 00:33:00
7:52 PM,82.4,75.2,79,29.72,10.0,West,5.8,-,N/A,,Scattered Clouds,280,2013-09-10 00:52:00
8:13 PM,80.6,73.4,79,29.73,10.0,WNW,9.2,-,N/A,,Clear,290,2013-09-10 01:13:00
8:33 PM,80.6,73.4,79,29.75,10.0,WNW,6.9,-,N/A,,Clear,300,2013-09-10 01:33:00
8:52 PM,78.8,71.6,78,29.76,10.0,WNW,6.9,-,N/A,,Clear,290,2013-09-10 01:52:00
9:13 PM,78.8,71.6,78,29.76,10.0,WNW,4.6,-,N/A,,Scattered Clouds,290,2013-09-10 02:13:00
9:33 PM,78.8,71.6,78,29.77,10.0,West,8.1,-,N/A,,Scattered Clouds,280,2013-09-10 02:33:00
9:52 PM,77.0,69.8,78,29.78,10.0,West,6.9,-,N/A,,Clear,280,2013-09-10 02:52:00
10:13 PM,75.2,69.8,83,29.78,10.0,WNW,8.1,17.3,N/A,,Clear,290,2013-09-10 03:13:00
10:33 PM,73.4,69.8,88,29.79,10.0,West,6.9,-,N/A,,Clear,280,2013-09-10 03:33:00
10:52 PM,73.4,68.0,83,29.79,10.0,WNW,9.2,-,N/A,,Clear,290,2013-09-10 03:52:00
11:13 PM,73.4,68.0,83,29.80,10.0,WNW,9.2,-,N/A,,Clear,290,2013-09-10 04:13:00
11:33 PM,73.4,66.2,78,29.80,10.0,WNW,6.9,-,N/A,,Clear,300,2013-09-10 04:33:00
11:53 PM,71.6,68.0,88,29.80,10.0,WNW,6.9,-,N/A,,Clear,290,2013-09-10 04:53:00